Overall — Rattlesnake - Mini

Saturday 28 September 2024 · 56 finishers across every class · 4 laps for the winner

Complete overall finishing order for Rattlesnake - Mini.
Pos No. Rider Class Laps Time Behind Int Pace
1 #99A CASH, CARSON SM 14-15 4 1:04:48 0:00 16:12
2 #47A HARRISON, EVAN SM 14-15 4 1:05:10 +0:22 0:22 16:17
3 #19A CAWLEY, MASON SM 14-15 4 1:06:03 +1:15 0:53 16:30
4 #42B LACY, JACK SM 12-13 4 1:07:49 +3:01 1:46 16:57
5 #25B HERTZLER, NOAH SM 12-13 4 1:09:52 +5:04 2:03 17:28
6 #18A EDMONDSON, TUCKER SM 14-15 4 1:10:07 +5:19 0:15 17:31
7 #24C OLEARY, NOLAN MINI 12-13 4 1:10:21 +5:33 0:14 17:35
8 #42A SCHLICKENMEYER, SEAN SM 14-15 4 1:11:16 +6:28 0:55 17:49
9 #21C WIGGINS, MADDIX MINI 12-13 4 1:11:24 +6:36 0:08 17:51
10 #51B RICE, DANE SM 12-13 4 1:11:38 +6:50 0:14 17:54
11 #30A OLEARY, ASHTON SM 14-15 4 1:12:24 +7:36 0:46 18:06
12 #14B MOUNTS, RILEY SM 12-13 4 1:12:51 +8:03 0:27 18:12
13 #12D BURKHOLDER, BRADLEY MINI 9-11 4 1:14:04 +9:16 1:13 18:31
14 #4C KERN, QUENTIN MINI 12-13 4 1:15:14 +10:26 1:10 18:48
15 #42C COLLINS, JAXON MINI 12-13 4 1:15:35 +10:47 0:21 18:53
16 #52B FOUTZ, KELLEN SM 12-13 4 1:16:59 +12:11 1:24 19:14
17 #5C MARKHAM, KASEN MINI 12-13 4 1:17:27 +12:39 0:28 19:21
18 #25C TORRES, TRISTIN MINI 12-13 4 1:18:11 +13:23 0:44 19:32
19 #5B BAKKEN, DASH SM 12-13 4 1:18:46 +13:58 0:35 19:41
20 #29C NALLS, COLTON MINI 12-13 4 1:19:24 +14:36 0:38 19:51
21 #23BZ SMITH, GAVIN SM 12-13 4 1:19:50 +15:02 0:26 19:57
22 #31A MOUNTS, HUNTER SM 14-15 4 1:20:13 +15:25 0:23 20:03
23 #50C JOHNSON, LUCAS MINI 12-13 4 1:20:28 +15:40 0:15 20:07
24 #44B GEARHART, CADENCE SM 12-13 4 1:22:52 +18:04 2:24 20:43
25 #21K RAZOR, JAMES MINI 9-11K 3 1:02:13 1 lap 0:00 20:44
26 #40K WINN, ADDISON MINI 9-11K 3 1:02:56 1 lap 0:43 20:58
27 #51K RICE, HOLTON MINI 9-11K 3 1:04:13 1 lap 1:17 21:24
28 #26D LILLY, WYATT MINI 9-11 3 1:04:56 1 lap 0:43 21:38
29 #11B TYREE, JESSE SM 12-13 3 1:05:24 1 lap 0:28 21:48
30 #33C LILLY, RYDER MINI 12-13 3 1:05:40 1 lap 0:16 21:53
31 #96D MARKHAM, GUNNER MINI 9-11 3 1:05:52 1 lap 0:12 21:57
32 #1K DOMAN, HAYDEN MINI 9-11K 3 1:06:15 1 lap 0:23 22:05
33 #45K SMITH, BOWEN MINI 9-11K 3 1:06:35 1 lap 0:20 22:11
34 #10E PANCAKE, LILLIAN SM WOMEN 3 1:06:58 1 lap 0:23 22:19
35 #2E HARDMAN, SAVANNAH SM WOMEN 3 1:08:37 1 lap 1:39 22:52
36 #35D SULLINS, SAMMY MINI 9-11 3 1:08:56 1 lap 0:19 22:58
37 #57K WARREN, MASON MINI 9-11K 3 1:10:30 1 lap 1:34 23:30
38 #13E NICHOLS, ELLA SM WOMEN 3 1:10:40 1 lap 0:10 23:33
39 #8K MUTER, MAX MINI 9-11K 3 1:10:50 1 lap 0:10 23:36
40 #93D WEST, WALKER MINI 9-11 3 1:10:55 1 lap 0:05 23:38
41 #52A REYNOLDS, LUCAS SM 14-15 3 1:11:45 1 lap 0:50 23:55
42 #11A SENTERS, ZEKE SM 14-15 3 1:12:14 1 lap 0:29 24:04
43 #69D LILLY, COLE MINI 9-11 3 1:13:34 1 lap 1:20 24:31
44 #30C FAIN, JACKSON MINI 12-13 3 1:14:25 1 lap 0:51 24:48
45 #26K SMITH, HUNTER MINI 9-11K 3 1:15:32 1 lap 1:07 25:10
46 #8E PANCAKE, DELILAH SM WOMEN 3 1:16:38 1 lap 1:06 25:32
47 #55D KUEBLER, CADEN MINI 9-11 3 1:16:52 1 lap 0:14 25:37
48 #24E WINGO, BELLA SM WOMEN 3 1:20:05 1 lap 3:13 26:41
49 #35C QUESENBERRY, DILLAN MINI 12-13 3 1:21:08 1 lap 1:03 27:02
50 #99B RAFFERTY, LUKE SM 12-13 3 1:24:35 1 lap 3:27 28:11
51 #21D PERRY, DYLAN MINI 9-11 3 1:26:02 1 lap 1:27 28:40
52 #18EZ EDMONDSON, MCKENNA SM WOMEN 3 1:30:00 1 lap 3:58 30:00
53 #18K PAYNE, DYLAN MINI 9-11K 2 59:28 2 laps 0:00 29:44
54 #25K ANTHONY, AIDEN MINI 9-11K 2 1:01:14 2 laps 1:46 30:37
55 #74K LOVE, CONNER MINI 9-11K 2 1:13:31 2 laps 12:17 36:45
56 #16K SCHILLUMEIT, SOPHIA MINI 9-11K 1 33:14 3 laps 0:00 33:14

Ranked the way the series ranks: most laps first, then least time. Behind is the deficit to the winner and is only shown where the lap count matches, because elapsed time says nothing across different lap counts — a rider a lap down shows the laps instead. Int is the gap to the rider immediately ahead.